Weather in Harbin

China     45°45′28″N   126°37′45″E
temp.,
°C
wind,
m/s
gust,
m/s
humid.,
%
clouds,
%
prec.,
mm/h
press.,
hPa
HPBL,
m
20 may, fri
fri2023:00+16sse34675 0.0 100884
02:00+14s49748 0.0 1008198
05:00+13s48725 0.0 1008186
08:00+21ssw574393 0.0 1007526
11:00+28sw581877 0.0 10053446
14:00+31w781664 0.0 10014122
17:00+30wsw6916100 0.0 9993744
20:00+25sw6142099 0.0 998552
21 may, sat
sat2123:00+20ese1246100 0.1 100079
02:00+18sw35555 0.3 1000130
05:00+17wsw125592 0.0 100056
08:00+22nnw44430 0.0 1001797
11:00+26nnw572887 0.0 10013096
14:00+26nw810213 0.0 10003434
17:00+24n882437 0.0 10003364
20:00+18nne611422 0.0 1004733
22 may, sun
sun2223:00+15n49540 0.0 1006348
02:00+13n37610 0.0 1006202
05:00+13n38644 0.0 1008260
08:00+19nne57385 0.0 10091219
11:00+23n572267 0.0 10082490
14:00+24n451914 0.0 10062526
17:00+24n242054 0.0 10052366
20:00+19se3529100 0.0 1006110
23 may, mon
mon2323:00+18s511325 0.0 1005268
02:00+16s5133640 0.0 1006298
05:00+16s61337100 0.0 1006311
08:00+23ssw7102799 0.0 1006724
11:00+29sw710198 0.0 10042391
14:00+32wsw7101874 0.0 10023207
17:00+31wnw57175 0.0 10023305
20:00+24e112666 0.0 100411
24 may, tue
tue2423:00+21sse3533100 0.0 100471
02:00+19sse51153100 0.3 1004206
05:00+20s61252100 0.0 1004378
08:00+25s7940100 0.0 1004819
11:00+31ssw71025100 0.0 10031751
14:00+35sw9111691 0.0 10014103
17:00+29wnw91330100 0.1 10011371
20:00+29sw61418100 0.1 10031166